Time,TemperatureF,DewpointF,PressureIn,WindDirection,WindDirectionDegrees,WindSpeedMPH,WindSpeedGustMPH,Humidity,HourlyPrecipIn,Conditions,Clouds,dailyrainin,SoftwareType,DateUTC
2013-02-24 00:02:00,44.6,15.8,30.01,West,270,4.0,5.0,31,0.00,,,0.00,meteohub,2013-02-24 08:02:00,
2013-02-24 00:08:00,44.2,16.2,30.00,SW,225,3.0,5.0,32,0.00,,,0.00,meteohub,2013-02-24 08:08:00,
2013-02-24 00:13:00,43.9,16.0,30.00,SW,225,4.0,4.0,32,0.00,,,0.00,meteohub,2013-02-24 08:13:00,
2013-02-24 00:18:00,43.5,16.3,30.01,West,270,7.0,7.0,33,0.00,,,0.00,meteohub,2013-02-24 08:18:00,
2013-02-24 00:23:00,43.5,17.1,30.00,SW,225,6.0,6.0,34,0.00,,,0.00,meteohub,2013-02-24 08:23:00,
2013-02-24 00:28:00,43.5,17.1,30.00,West,270,5.0,7.0,34,0.00,,,0.00,meteohub,2013-02-24 08:28:00,
2013-02-24 00:33:00,43.5,17.1,30.00,NW,315,4.0,7.0,34,0.00,,,0.00,meteohub,2013-02-24 08:33:00,
2013-02-24 00:38:00,43.5,17.1,30.01,West,270,2.0,6.0,34,0.00,,,0.00,meteohub,2013-02-24 08:38:00,
2013-02-24 00:43:00,43.3,16.9,30.00,West,270,2.0,6.0,34,0.00,,,0.00,meteohub,2013-02-24 08:43:00,
2013-02-24 00:48:00,43.3,17.6,30.00,West,270,3.0,4.0,35,0.00,,,0.00,meteohub,2013-02-24 08:48:00,
2013-02-24 00:53:00,43.0,17.8,30.01,SE,135,2.0,4.0,36,0.00,,,0.00,meteohub,2013-02-24 08:53:00,
2013-02-24 00:58:00,42.8,17.6,30.00,SW,225,2.0,3.0,36,0.00,,,0.00,meteohub,2013-02-24 08:58:00,
2013-02-24 01:03:00,42.8,18.3,30.01,SW,225,2.0,4.0,37,0.00,,,0.00,meteohub,2013-02-24 09:03:00,
2013-02-24 01:09:00,42.8,18.9,30.01,SW,225,2.0,4.0,38,0.00,,,0.00,meteohub,2013-02-24 09:09:00,
2013-02-24 01:14:00,42.8,18.9,30.01,SW,225,2.0,3.0,38,0.00,,,0.00,meteohub,2013-02-24 09:14:00,
2013-02-24 01:19:00,43.0,20.3,30.01,West,270,4.0,4.0,40,0.00,,,0.00,meteohub,2013-02-24 09:19:00,
2013-02-24 01:24:00,43.2,21.0,30.01,SW,225,3.0,4.0,41,0.00,,,0.00,meteohub,2013-02-24 09:24:00,
2013-02-24 01:29:00,43.2,20.5,30.01,West,270,2.0,4.0,40,0.00,,,0.00,meteohub,2013-02-24 09:29:00,
2013-02-24 01:34:00,43.2,19.9,30.01,SW,225,3.0,4.0,39,0.00,,,0.00,meteohub,2013-02-24 09:34:00,
2013-02-24 01:39:00,43.3,19.4,30.00,West,270,3.0,5.0,38,0.00,,,0.00,meteohub,2013-02-24 09:39:00,
2013-02-24 01:44:00,43.5,19.0,30.00,West,270,2.0,5.0,37,0.00,,,0.00,meteohub,2013-02-24 09:44:00,
2013-02-24 01:49:00,43.5,17.6,30.01,West,270,3.0,5.0,35,0.00,,,0.00,meteohub,2013-02-24 09:49:00,
2013-02-24 01:55:00,43.5,17.6,30.00,SW,225,2.0,4.0,35,0.00,,,0.00,meteohub,2013-02-24 09:55:00,
2013-02-24 02:00:00,43.2,16.7,30.00,West,270,3.0,4.0,34,0.00,,,0.00,meteohub,2013-02-24 10:00:00,
2013-02-24 02:05:00,43.0,16.5,30.00,SW,225,2.0,4.0,34,0.00,,,0.00,meteohub,2013-02-24 10:05:00,
2013-02-24 02:10:00,42.8,15.6,30.00,West,270,4.0,4.0,33,0.00,,,0.00,meteohub,2013-02-24 10:10:00,
2013-02-24 02:15:00,42.6,16.2,30.00,West,270,5.0,5.0,34,0.00,,,0.00,meteohub,2013-02-24 10:15:00,
2013-02-24 02:20:00,42.6,16.2,30.00,West,270,5.0,5.0,34,0.00,,,0.00,meteohub,2013-02-24 10:20:00,
2013-02-24 02:25:00,43.0,16.5,30.01,West,270,3.0,5.0,34,0.00,,,0.00,meteohub,2013-02-24 10:25:00,
2013-02-24 02:30:00,43.2,16.0,30.00,West,270,3.0,5.0,33,0.00,,,0.00,meteohub,2013-02-24 10:30:00,
2013-02-24 02:35:00,43.2,15.3,30.01,West,270,2.0,5.0,32,0.00,,,0.00,meteohub,2013-02-24 10:35:00,
2013-02-24 02:40:00,43.0,15.1,30.00,SW,225,2.0,4.0,32,0.00,,,0.00,meteohub,2013-02-24 10:40:00,
2013-02-24 02:45:00,42.8,14.9,30.00,SW,225,2.0,4.0,32,0.00,,,0.00,meteohub,2013-02-24 10:45:00,
2013-02-24 02:50:00,42.8,14.9,29.99,West,270,2.0,4.0,32,0.00,,,0.00,meteohub,2013-02-24 10:50:00,
2013-02-24 02:55:00,42.8,14.9,29.99,SW,225,1.0,4.0,32,0.00,,,0.00,meteohub,2013-02-24 10:55:00,
2013-02-24 03:01:00,42.6,15.4,30.00,West,270,2.0,3.0,33,0.00,,,0.00,meteohub,2013-02-24 11:01:00,
2013-02-24 03:06:00,42.4,15.4,30.00,West,270,2.0,3.0,33,0.00,,,0.00,meteohub,2013-02-24 11:06:00,
2013-02-24 03:11:00,42.1,15.1,29.99,West,270,2.0,3.0,33,0.00,,,0.00,meteohub,2013-02-24 11:11:00,
2013-02-24 03:16:00,41.9,14.9,29.99,SW,225,2.0,3.0,33,0.00,,,0.00,meteohub,2013-02-24 11:16:00,
2013-02-24 03:21:00,41.7,14.7,29.99,West,270,2.0,3.0,33,0.00,,,0.00,meteohub,2013-02-24 11:21:00,
2013-02-24 03:26:00,41.7,14.7,29.99,SW,225,2.0,4.0,33,0.00,,,0.00,meteohub,2013-02-24 11:26:00,
2013-02-24 03:31:00,41.9,14.9,29.99,SW,225,2.0,4.0,33,0.00,,,0.00,meteohub,2013-02-24 11:31:00,
2013-02-24 03:36:00,41.9,14.9,29.99,West,270,2.0,3.0,33,0.00,,,0.00,meteohub,2013-02-24 11:36:00,
2013-02-24 03:41:00,42.1,14.4,29.99,West,270,2.0,3.0,32,0.00,,,0.00,meteohub,2013-02-24 11:41:00,
2013-02-24 03:46:00,41.9,12.7,29.99,West,270,1.0,2.0,30,0.00,,,0.00,meteohub,2013-02-24 11:46:00,
2013-02-24 03:51:00,41.9,12.7,29.99,West,270,2.0,2.0,30,0.00,,,0.00,meteohub,2013-02-24 11:51:00,
2013-02-24 03:56:00,42.6,12.6,29.99,West,270,2.0,3.0,29,0.00,,,0.00,meteohub,2013-02-24 11:56:00,
2013-02-24 04:01:00,42.8,11.1,29.99,NW,315,2.0,3.0,27,0.00,,,0.00,meteohub,2013-02-24 12:01:00,
2013-02-24 04:07:00,42.8,11.1,29.99,NW,315,2.0,3.0,27,0.00,,,0.00,meteohub,2013-02-24 12:07:00,
2013-02-24 04:12:00,42.4,11.7,29.99,South,180,1.0,3.0,28,0.00,,,0.00,meteohub,2013-02-24 12:12:00,
2013-02-24 04:17:00,42.3,10.6,29.99,South,180,2.0,2.0,27,0.00,,,0.00,meteohub,2013-02-24 12:17:00,
2013-02-24 04:22:00,41.9,10.4,29.99,South,180,2.0,2.0,27,0.00,,,0.00,meteohub,2013-02-24 12:22:00,
2013-02-24 04:27:00,41.7,10.2,29.99,South,180,2.0,2.0,27,0.00,,,0.00,meteohub,2013-02-24 12:27:00,
2013-02-24 04:32:00,41.5,10.0,29.99,East,90,3.0,3.0,27,0.00,,,0.00,meteohub,2013-02-24 12:32:00,
2013-02-24 04:37:00,40.1,10.4,29.99,SE,135,4.0,5.0,29,0.00,,,0.00,meteohub,2013-02-24 12:37:00,
2013-02-24 04:42:00,40.1,11.1,29.99,South,180,3.0,5.0,30,0.00,,,0.00,meteohub,2013-02-24 12:42:00,
2013-02-24 04:47:00,40.3,11.3,29.99,South,180,2.0,5.0,30,0.00,,,0.00,meteohub,2013-02-24 12:47:00,
2013-02-24 04:53:00,40.6,11.7,30.00,South,180,2.0,4.0,30,0.00,,,0.00,meteohub,2013-02-24 12:53:00,
2013-02-24 04:58:00,39.9,10.2,29.99,South,180,3.0,4.0,29,0.00,,,0.00,meteohub,2013-02-24 12:58:00,
2013-02-24 05:03:00,39.4,10.6,30.00,South,180,3.0,4.0,30,0.00,,,0.00,meteohub,2013-02-24 13:03:00,
2013-02-24 05:08:00,39.9,10.9,29.99,NW,315,2.0,5.0,30,0.00,,,0.00,meteohub,2013-02-24 13:08:00,
2013-02-24 05:13:00,40.8,10.2,30.00,South,180,1.0,5.0,28,0.00,,,0.00,meteohub,2013-02-24 13:13:00,
2013-02-24 05:18:00,41.2,9.0,30.00,East,90,2.0,6.0,26,0.00,,,0.00,meteohub,2013-02-24 13:18:00,
2013-02-24 05:23:00,41.2,9.0,30.00,SE,135,5.0,6.0,26,0.00,,,0.00,meteohub,2013-02-24 13:23:00,
2013-02-24 05:28:00,42.6,10.0,30.00,SE,135,4.0,6.0,26,0.00,,,0.00,meteohub,2013-02-24 13:28:00,
2013-02-24 05:33:00,42.8,9.3,30.00,East,90,4.0,5.0,25,0.00,,,0.00,meteohub,2013-02-24 13:33:00,
2013-02-24 05:39:00,42.4,10.0,30.00,South,180,3.0,5.0,26,0.00,,,0.00,meteohub,2013-02-24 13:39:00,
2013-02-24 05:44:00,42.3,10.6,30.00,South,180,1.0,5.0,27,0.00,,,0.00,meteohub,2013-02-24 13:44:00,
2013-02-24 05:49:00,41.7,10.2,30.01,SSW,203,4.0,4.0,27,0.00,,,0.00,meteohub,2013-02-24 13:49:00,
2013-02-24 05:54:00,41.4,9.9,30.00,South,180,4.0,4.0,27,0.00,,,0.00,meteohub,2013-02-24 13:54:00,
2013-02-24 05:59:00,41.7,10.2,30.01,South,180,5.0,5.0,27,0.00,,,0.00,meteohub,2013-02-24 13:59:00,
2013-02-24 06:04:00,41.9,10.4,30.01,South,180,4.0,5.0,27,0.00,,,0.00,meteohub,2013-02-24 14:04:00,
2013-02-24 06:09:00,41.9,10.4,30.01,South,180,4.0,5.0,27,0.00,,,0.00,meteohub,2013-02-24 14:09:00,
2013-02-24 06:14:00,42.1,10.6,30.01,South,180,4.0,5.0,27,0.00,,,0.00,meteohub,2013-02-24 14:14:00,
2013-02-24 06:19:00,42.4,10.8,30.01,SE,135,4.0,5.0,27,0.00,,,0.00,meteohub,2013-02-24 14:19:00,
2013-02-24 06:24:00,42.4,10.8,30.01,East,90,3.0,5.0,27,0.00,,,0.00,meteohub,2013-02-24 14:24:00,
2013-02-24 06:29:00,42.1,10.6,30.01,South,180,5.0,5.0,27,0.00,,,0.00,meteohub,2013-02-24 14:29:00,
2013-02-24 06:35:00,42.1,10.6,30.01,South,180,4.0,5.0,27,0.00,,,0.00,meteohub,2013-02-24 14:35:00,
2013-02-24 06:40:00,42.3,10.6,30.01,South,180,5.0,5.0,27,0.00,,,0.00,meteohub,2013-02-24 14:40:00,
2013-02-24 06:45:00,41.9,10.4,30.01,South,180,4.0,6.0,27,0.00,,,0.00,meteohub,2013-02-24 14:45:00,
2013-02-24 06:50:00,41.5,10.0,30.01,South,180,4.0,6.0,27,0.00,,,0.00,meteohub,2013-02-24 14:50:00,
2013-02-24 06:55:00,41.2,10.6,30.01,SE,135,4.0,6.0,28,0.00,,,0.00,meteohub,2013-02-24 14:55:00,
2013-02-24 07:00:00,41.2,10.6,30.02,ESE,113,4.0,4.0,28,0.00,,,0.00,meteohub,2013-02-24 15:00:00,
2013-02-24 07:05:00,41.4,10.8,30.02,South,180,4.0,4.0,28,0.00,,,0.00,meteohub,2013-02-24 15:05:00,
2013-02-24 07:10:00,42.3,11.5,30.03,South,180,4.0,4.0,28,0.00,,,0.00,meteohub,2013-02-24 15:10:00,
2013-02-24 07:16:00,43.5,10.9,30.03,SE,135,3.0,4.0,26,0.00,,,0.00,meteohub,2013-02-24 15:16:00,
2013-02-24 07:21:00,44.6,10.9,30.03,SE,135,5.0,5.0,25,0.00,,,0.00,meteohub,2013-02-24 15:21:00,
2013-02-24 07:26:00,45.7,10.9,30.03,South,180,1.0,5.0,24,0.00,,,0.00,meteohub,2013-02-24 15:26:00,
2013-02-24 07:31:00,46.0,11.3,30.03,South,180,4.0,5.0,24,0.00,,,0.00,meteohub,2013-02-24 15:31:00,
2013-02-24 07:36:00,46.4,13.3,30.04,South,180,2.0,5.0,26,0.00,,,0.00,meteohub,2013-02-24 15:36:00,
2013-02-24 07:41:00,46.6,13.5,30.04,SE,135,2.0,4.0,26,0.00,,,0.00,meteohub,2013-02-24 15:41:00,
2013-02-24 07:46:00,47.1,14.0,30.04,South,180,3.0,4.0,26,0.00,,,0.00,meteohub,2013-02-24 15:46:00,
2013-02-24 07:51:00,47.5,14.4,30.04,SE,135,4.0,5.0,26,0.00,,,0.00,meteohub,2013-02-24 15:51:00,
2013-02-24 07:56:00,47.8,14.5,30.04,SE,135,6.0,6.0,26,0.00,,,0.00,meteohub,2013-02-24 15:56:00,
2013-02-24 08:01:00,48.4,14.2,30.04,SE,135,8.0,8.0,25,0.00,,,0.00,meteohub,2013-02-24 16:01:00,
2013-02-24 08:06:00,49.1,14.7,30.04,SE,135,8.0,9.0,25,0.00,,,0.00,meteohub,2013-02-24 16:06:00,
2013-02-24 08:12:00,49.6,15.3,30.04,SE,135,8.0,9.0,25,0.00,,,0.00,meteohub,2013-02-24 16:12:00,
2013-02-24 08:17:00,50.0,14.5,30.04,SE,135,7.0,9.0,24,0.00,,,0.00,meteohub,2013-02-24 16:17:00,
2013-02-24 08:22:00,50.0,14.5,30.04,SE,135,7.0,9.0,24,0.00,,,0.00,meteohub,2013-02-24 16:22:00,
2013-02-24 08:27:00,50.7,15.3,30.04,SE,135,9.0,9.0,24,0.00,,,0.00,meteohub,2013-02-24 16:27:00,
2013-02-24 08:32:00,50.9,15.4,30.04,SE,135,7.0,10.0,24,0.00,,,0.00,meteohub,2013-02-24 16:32:00,
2013-02-24 08:37:00,50.9,15.4,30.04,SE,135,7.0,11.0,24,0.00,,,0.00,meteohub,2013-02-24 16:37:00,
2013-02-24 08:42:00,51.4,15.8,30.04,South,180,5.0,11.0,24,0.00,,,0.00,meteohub,2013-02-24 16:42:00,
2013-02-24 08:47:00,51.8,15.1,30.04,East,90,7.0,11.0,23,0.00,,,0.00,meteohub,2013-02-24 16:47:00,
2013-02-24 08:52:00,51.8,15.1,30.04,SE,135,11.0,11.0,23,0.00,,,0.00,meteohub,2013-02-24 16:52:00,
2013-02-24 08:57:00,51.6,16.0,30.04,SE,135,9.0,11.0,24,0.00,,,0.00,meteohub,2013-02-24 16:57:00,
2013-02-24 09:02:00,52.2,15.4,30.04,SE,135,8.0,11.0,23,0.00,,,0.00,meteohub,2013-02-24 17:02:00,
2013-02-24 09:07:00,52.3,14.5,30.04,East,90,9.0,11.0,22,0.00,,,0.00,meteohub,2013-02-24 17:07:00,
2013-02-24 09:12:00,52.9,15.1,30.05,East,90,8.0,11.0,22,0.00,,,0.00,meteohub,2013-02-24 17:12:00,
2013-02-24 09:17:00,53.1,15.3,30.05,East,90,10.0,11.0,22,0.00,,,0.00,meteohub,2013-02-24 17:17:00,
2013-02-24 09:22:00,53.1,15.3,30.05,NE,45,8.0,11.0,22,0.00,,,0.00,meteohub,2013-02-24 17:22:00,
2013-02-24 09:27:00,53.6,14.5,30.05,NE,45,10.0,11.0,21,0.00,,,0.00,meteohub,2013-02-24 17:27:00,
2013-02-24 09:32:00,54.3,15.3,30.05,East,90,11.0,11.0,21,0.00,,,0.00,meteohub,2013-02-24 17:32:00,
2013-02-24 09:37:00,54.3,15.3,30.05,East,90,8.0,11.0,21,0.00,,,0.00,meteohub,2013-02-24 17:37:00,
2013-02-24 09:42:00,54.5,15.3,30.05,SE,135,8.0,11.0,21,0.00,,,0.00,meteohub,2013-02-24 17:42:00,
2013-02-24 09:47:00,54.9,15.6,30.05,East,90,10.0,11.0,21,0.00,,,0.00,meteohub,2013-02-24 17:47:00,
2013-02-24 09:52:00,54.9,15.6,30.06,NW,315,8.0,11.0,21,0.00,,,0.00,meteohub,2013-02-24 17:52:00,
2013-02-24 09:57:00,55.4,19.2,30.05,SE,135,8.0,11.0,24,0.00,,,0.00,meteohub,2013-02-24 17:57:00,
2013-02-24 10:02:00,55.4,18.1,30.05,SE,135,6.0,11.0,23,0.00,,,0.00,meteohub,2013-02-24 18:02:00,
2013-02-24 10:07:00,55.4,18.1,30.05,East,90,8.0,11.0,23,0.00,,,0.00,meteohub,2013-02-24 18:07:00,
2013-02-24 10:12:00,55.2,16.0,30.05,NE,45,5.0,13.0,21,0.00,,,0.00,meteohub,2013-02-24 18:12:00,
2013-02-24 10:17:00,55.9,19.6,30.04,East,90,11.0,13.0,24,0.00,,,0.00,meteohub,2013-02-24 18:17:00,
2013-02-24 10:22:00,55.8,19.6,30.04,SE,135,7.0,13.0,24,0.00,,,0.00,meteohub,2013-02-24 18:22:00,
2013-02-24 10:27:00,56.8,20.5,30.04,East,90,13.0,13.0,24,0.00,,,0.00,meteohub,2013-02-24 18:27:00,
2013-02-24 10:32:00,56.8,19.4,30.04,NE,45,5.0,13.0,23,0.00,,,0.00,meteohub,2013-02-24 18:32:00,
2013-02-24 10:37:00,57.7,19.2,30.04,East,90,8.0,13.0,22,0.00,,,0.00,meteohub,2013-02-24 18:37:00,
2013-02-24 10:43:00,58.1,20.5,30.04,ESE,113,8.0,13.0,23,0.00,,,0.00,meteohub,2013-02-24 18:43:00,
2013-02-24 10:48:00,58.3,19.6,30.05,SW,225,6.0,11.0,22,0.00,,,0.00,meteohub,2013-02-24 18:48:00,
2013-02-24 10:53:00,58.3,19.6,30.04,East,90,11.0,11.0,22,0.00,,,0.00,meteohub,2013-02-24 18:53:00,
2013-02-24 10:58:00,58.1,19.4,30.04,NNE,23,4.0,13.0,22,0.00,,,0.00,meteohub,2013-02-24 18:58:00,
2013-02-24 11:03:00,58.8,20.1,30.04,East,90,13.0,13.0,22,0.00,,,0.00,meteohub,2013-02-24 19:03:00,
2013-02-24 11:08:00,58.5,19.8,30.04,SE,135,13.0,13.0,22,0.00,,,0.00,meteohub,2013-02-24 19:08:00,
2013-02-24 11:13:00,59.4,19.4,30.04,East,90,9.0,13.0,21,0.00,,,0.00,meteohub,2013-02-24 19:13:00,
2013-02-24 11:18:00,59.2,19.2,30.03,South,180,11.0,13.0,21,0.00,,,0.00,meteohub,2013-02-24 19:18:00,
2013-02-24 11:23:00,59.4,19.4,30.03,SE,135,10.0,13.0,21,0.00,,,0.00,meteohub,2013-02-24 19:23:00,
2013-02-24 11:28:00,59.7,19.8,30.03,East,90,8.0,12.0,21,0.00,,,0.00,meteohub,2013-02-24 19:28:00,
2013-02-24 11:34:00,60.1,19.9,30.03,East,90,11.0,12.0,21,0.00,,,0.00,meteohub,2013-02-24 19:34:00,
2013-02-24 11:39:00,60.3,20.1,30.03,East,90,8.0,11.0,21,0.00,,,0.00,meteohub,2013-02-24 19:39:00,
2013-02-24 11:44:00,60.6,20.5,30.02,East,90,7.0,11.0,21,0.00,,,0.00,meteohub,2013-02-24 19:44:00,
2013-02-24 11:49:00,61.2,19.8,30.02,East,90,8.0,11.0,20,0.00,,,0.00,meteohub,2013-02-24 19:49:00,
2013-02-24 11:54:00,61.3,19.9,30.02,East,90,9.0,16.0,20,0.00,,,0.00,meteohub,2013-02-24 19:54:00,
2013-02-24 11:59:00,60.6,20.5,30.02,East,90,11.0,16.0,21,0.00,,,0.00,meteohub,2013-02-24 19:59:00,
2013-02-24 12:04:00,61.3,19.9,30.02,East,90,7.0,16.0,20,0.00,,,0.00,meteohub,2013-02-24 20:04:00,
2013-02-24 12:09:00,61.9,19.2,30.01,NE,45,4.0,12.0,19,0.00,,,0.00,meteohub,2013-02-24 20:09:00,
2013-02-24 12:14:00,62.2,19.4,30.02,ENE,68,8.0,12.0,19,0.00,,,0.00,meteohub,2013-02-24 20:14:00,
2013-02-24 12:19:00,62.6,18.5,30.01,East,90,4.0,10.0,18,0.00,,,0.00,meteohub,2013-02-24 20:19:00,
2013-02-24 12:24:00,62.6,18.5,30.01,SE,135,6.0,9.0,18,0.00,,,0.00,meteohub,2013-02-24 20:24:00,
2013-02-24 12:29:00,62.4,19.6,30.01,East,90,8.0,9.0,19,0.00,,,0.00,meteohub,2013-02-24 20:29:00,
2013-02-24 12:35:00,62.2,19.4,30.01,East,90,5.0,9.0,19,0.00,,,0.00,meteohub,2013-02-24 20:35:00,
2013-02-24 12:40:00,62.1,19.2,30.01,North,0,6.0,9.0,19,0.00,,,0.00,meteohub,2013-02-24 20:40:00,
2013-02-24 12:45:00,62.4,18.3,30.00,East,90,8.0,9.0,18,0.00,,,0.00,meteohub,2013-02-24 20:45:00,
2013-02-24 12:50:00,62.6,17.2,29.99,East,90,6.0,10.0,17,0.00,,,0.00,meteohub,2013-02-24 20:50:00,
2013-02-24 12:55:00,63.0,17.4,29.99,East,90,8.0,10.0,17,0.00,,,0.00,meteohub,2013-02-24 20:55:00,
2013-02-24 13:00:00,62.8,17.2,29.99,NNE,23,4.0,10.0,17,0.00,,,0.00,meteohub,2013-02-24 21:00:00,
2013-02-24 13:05:00,63.0,17.4,29.99,East,90,8.0,12.0,17,0.00,,,0.00,meteohub,2013-02-24 21:05:00,
2013-02-24 13:10:00,63.5,18.0,29.99,NE,45,5.0,12.0,17,0.00,,,0.00,meteohub,2013-02-24 21:10:00,
2013-02-24 13:15:00,64.4,17.2,29.99,SE,135,8.0,12.0,16,0.00,,,0.00,meteohub,2013-02-24 21:15:00,
2013-02-24 13:20:00,64.4,17.2,29.99,NW,315,4.0,13.0,16,0.00,,,0.00,meteohub,2013-02-24 21:20:00,
2013-02-24 13:25:00,64.4,17.2,29.99,NW,315,4.0,13.0,16,0.00,,,0.00,meteohub,2013-02-24 21:25:00,
2013-02-24 13:30:00,64.6,17.4,29.98,ENE,68,6.0,11.0,16,0.00,,,0.00,meteohub,2013-02-24 21:30:00,
2013-02-24 13:36:00,64.6,17.4,29.98,NNW,338,7.0,10.0,16,0.00,,,0.00,meteohub,2013-02-24 21:36:00,
2013-02-24 13:41:00,64.8,17.4,29.98,North,0,7.0,10.0,16,0.00,,,0.00,meteohub,2013-02-24 21:41:00,
2013-02-24 13:46:00,64.6,17.4,29.98,North,0,7.0,11.0,16,0.00,,,0.00,meteohub,2013-02-24 21:46:00,
2013-02-24 13:51:00,64.6,17.4,29.98,East,90,9.0,11.0,16,0.00,,,0.00,meteohub,2013-02-24 21:51:00,
2013-02-24 13:57:00,64.6,17.4,29.98,SE,135,5.0,14.0,16,0.00,,,0.00,meteohub,2013-02-24 21:57:00,
2013-02-24 14:02:00,64.9,17.6,29.98,East,90,6.0,14.0,16,0.00,,,0.00,meteohub,2013-02-24 22:02:00,
2013-02-24 14:07:00,65.1,19.2,29.98,South,180,8.0,14.0,17,0.00,,,0.00,meteohub,2013-02-24 22:07:00,
2013-02-24 14:12:00,65.1,19.2,29.98,North,0,8.0,10.0,17,0.00,,,0.00,meteohub,2013-02-24 22:12:00,
2013-02-24 14:17:00,65.1,19.2,29.97,NW,315,5.0,11.0,17,0.00,,,0.00,meteohub,2013-02-24 22:17:00,
2013-02-24 14:22:00,64.4,18.7,29.98,NW,315,10.0,11.0,17,0.00,,,0.00,meteohub,2013-02-24 22:22:00,
2013-02-24 14:27:00,63.7,19.4,29.98,South,180,8.0,11.0,18,0.00,,,0.00,meteohub,2013-02-24 22:27:00,
2013-02-24 14:32:00,63.5,19.2,29.98,NE,45,7.0,11.0,18,0.00,,,0.00,meteohub,2013-02-24 22:32:00,
2013-02-24 14:37:00,63.5,19.2,29.97,NE,45,7.0,10.0,18,0.00,,,0.00,meteohub,2013-02-24 22:37:00,
2013-02-24 14:42:00,61.9,19.2,29.98,West,270,13.0,13.0,19,0.00,,,0.00,meteohub,2013-02-24 22:42:00,
2013-02-24 14:47:00,59.7,18.5,29.98,NW,315,14.0,14.0,20,0.00,,,0.00,meteohub,2013-02-24 22:47:00,
2013-02-24 14:52:00,59.2,18.1,29.98,NW,315,8.0,15.0,20,0.00,,,0.00,meteohub,2013-02-24 22:52:00,
2013-02-24 14:57:00,59.2,18.1,29.98,NW,315,11.0,15.0,20,0.00,,,0.00,meteohub,2013-02-24 22:57:00,
2013-02-24 15:02:00,58.8,19.0,29.98,NW,315,13.0,15.0,21,0.00,,,0.00,meteohub,2013-02-24 23:02:00,
2013-02-24 15:07:00,58.3,18.5,29.98,NW,315,11.0,13.0,21,0.00,,,0.00,meteohub,2013-02-24 23:07:00,
2013-02-24 15:12:00,58.1,18.3,29.98,SW,225,11.0,13.0,21,0.00,,,0.00,meteohub,2013-02-24 23:12:00,
2013-02-24 15:17:00,57.7,18.1,29.98,West,270,10.0,13.0,21,0.00,,,0.00,meteohub,2013-02-24 23:17:00,
2013-02-24 15:22:00,57.6,18.0,29.98,North,0,10.0,12.0,21,0.00,,,0.00,meteohub,2013-02-24 23:22:00,
2013-02-24 15:27:00,57.7,18.1,29.98,NW,315,8.0,13.0,21,0.00,,,0.00,meteohub,2013-02-24 23:27:00,
2013-02-24 15:32:00,57.6,18.0,29.98,North,0,8.0,13.0,21,0.00,,,0.00,meteohub,2013-02-24 23:32:00,
2013-02-24 15:37:00,57.0,18.5,29.97,NW,315,11.0,14.0,22,0.00,,,0.00,meteohub,2013-02-24 23:37:00,
2013-02-24 15:42:00,57.0,18.5,29.98,NW,315,10.0,14.0,22,0.00,,,0.00,meteohub,2013-02-24 23:42:00,
2013-02-24 15:47:00,57.2,17.6,29.97,West,270,7.0,14.0,21,0.00,,,0.00,meteohub,2013-02-24 23:47:00,
2013-02-24 15:52:00,56.8,18.3,29.98,West,270,11.0,13.0,22,0.00,,,0.00,meteohub,2013-02-24 23:52:00,
2013-02-24 15:57:00,56.5,18.1,29.98,West,270,13.0,13.0,22,0.00,,,0.00,meteohub,2013-02-24 23:57:00,
2013-02-24 16:02:00,56.1,17.8,29.98,West,270,8.0,13.0,22,0.00,,,0.00,meteohub,2013-02-25 00:02:00,
2013-02-24 16:07:00,56.1,17.8,29.98,West,270,8.0,13.0,22,0.00,,,0.00,meteohub,2013-02-25 00:07:00,
2013-02-24 16:12:00,55.9,17.6,29.98,NW,315,10.0,14.0,22,0.00,,,0.00,meteohub,2013-02-25 00:12:00,
2013-02-24 16:17:00,55.4,18.1,29.98,West,270,12.0,14.0,23,0.00,,,0.00,meteohub,2013-02-25 00:17:00,
2013-02-24 16:22:00,54.9,15.6,29.98,West,270,11.0,14.0,21,0.00,,,0.00,meteohub,2013-02-25 00:22:00,
2013-02-24 16:27:00,54.9,15.6,29.98,NW,315,8.0,13.0,21,0.00,,,0.00,meteohub,2013-02-25 00:27:00,
2013-02-24 16:32:00,55.0,15.8,29.97,NW,315,8.0,13.0,21,0.00,,,0.00,meteohub,2013-02-25 00:32:00,
2013-02-24 16:37:00,55.0,15.8,29.97,NW,315,10.0,12.0,21,0.00,,,0.00,meteohub,2013-02-25 00:37:00,
2013-02-24 16:42:00,54.9,15.6,29.98,West,270,10.0,11.0,21,0.00,,,0.00,meteohub,2013-02-25 00:42:00,
2013-02-24 16:47:00,54.9,15.6,29.98,West,270,9.0,12.0,21,0.00,,,0.00,meteohub,2013-02-25 00:47:00,
2013-02-24 16:52:00,54.3,15.3,29.98,West,270,11.0,12.0,21,0.00,,,0.00,meteohub,2013-02-25 00:52:00,
2013-02-24 16:57:00,54.0,14.9,29.98,West,270,9.0,11.0,21,0.00,,,0.00,meteohub,2013-02-25 00:57:00,
2013-02-24 17:02:00,54.0,14.9,29.98,NW,315,10.0,11.0,21,0.00,,,0.00,meteohub,2013-02-25 01:02:00,
2013-02-24 17:07:00,53.6,14.5,29.99,West,270,11.0,11.0,21,0.00,,,0.00,meteohub,2013-02-25 01:07:00,
2013-02-24 17:12:00,53.4,15.4,29.99,NW,315,10.0,11.0,22,0.00,,,0.00,meteohub,2013-02-25 01:12:00,
2013-02-24 17:17:00,53.2,15.4,29.99,NW,315,10.0,11.0,22,0.00,,,0.00,meteohub,2013-02-25 01:17:00,
2013-02-24 17:22:00,52.9,15.1,29.99,NW,315,9.0,11.0,22,0.00,,,0.00,meteohub,2013-02-25 01:22:00,
2013-02-24 17:27:00,52.5,14.7,29.99,West,270,8.0,11.0,22,0.00,,,0.00,meteohub,2013-02-25 01:27:00,
2013-02-24 17:32:00,52.2,15.4,29.99,West,270,7.0,11.0,23,0.00,,,0.00,meteohub,2013-02-25 01:32:00,
2013-02-24 17:37:00,52.0,15.3,29.99,West,270,8.0,10.0,23,0.00,,,0.00,meteohub,2013-02-25 01:37:00,
2013-02-24 17:42:00,51.8,15.1,29.99,West,270,7.0,10.0,23,0.00,,,0.00,meteohub,2013-02-25 01:42:00,
2013-02-24 17:47:00,51.4,15.8,29.99,West,270,6.0,10.0,24,0.00,,,0.00,meteohub,2013-02-25 01:47:00,
2013-02-24 17:52:00,51.1,15.4,29.99,West,270,5.0,9.0,24,0.00,,,0.00,meteohub,2013-02-25 01:52:00,
2013-02-24 17:57:00,50.9,15.4,30.00,West,270,5.0,9.0,24,0.00,,,0.00,meteohub,2013-02-25 01:57:00,
2013-02-24 18:02:00,50.5,15.1,30.00,West,270,4.0,8.0,24,0.00,,,0.00,meteohub,2013-02-25 02:02:00,
2013-02-24 18:07:00,50.2,14.7,30.00,SW,225,4.0,6.0,24,0.00,,,0.00,meteohub,2013-02-25 02:07:00,
2013-02-24 18:12:00,49.8,16.3,30.00,West,270,6.0,7.0,26,0.00,,,0.00,meteohub,2013-02-25 02:12:00,
2013-02-24 18:17:00,49.5,16.0,30.00,NW,315,3.0,7.0,26,0.00,,,0.00,meteohub,2013-02-25 02:17:00,
2013-02-24 18:22:00,49.1,16.5,30.00,SW,225,4.0,7.0,27,0.00,,,0.00,meteohub,2013-02-25 02:22:00,
2013-02-24 18:27:00,48.7,16.2,30.00,WSW,248,4.0,6.0,27,0.00,,,0.00,meteohub,2013-02-25 02:27:00,
2013-02-24 18:32:00,48.6,16.2,30.00,SW,225,4.0,6.0,27,0.00,,,0.00,meteohub,2013-02-25 02:32:00,
2013-02-24 18:37:00,48.4,16.0,30.00,West,270,7.0,7.0,27,0.00,,,0.00,meteohub,2013-02-25 02:37:00,
2013-02-24 18:42:00,48.2,15.8,30.01,NW,315,4.0,7.0,27,0.00,,,0.00,meteohub,2013-02-25 02:42:00,
2013-02-24 18:47:00,48.2,15.8,30.01,SW,225,6.0,7.0,27,0.00,,,0.00,meteohub,2013-02-25 02:47:00,
2013-02-24 18:52:00,48.2,14.9,30.01,West,270,4.0,7.0,26,0.00,,,0.00,meteohub,2013-02-25 02:52:00,
2013-02-24 18:57:00,48.0,15.6,30.01,NW,315,4.0,6.0,27,0.00,,,0.00,meteohub,2013-02-25 02:57:00,
2013-02-24 19:02:00,47.8,14.5,30.01,West,270,4.0,7.0,26,0.00,,,0.00,meteohub,2013-02-25 03:02:00,
2013-02-24 19:07:00,47.7,14.4,30.01,West,270,5.0,7.0,26,0.00,,,0.00,meteohub,2013-02-25 03:07:00,
2013-02-24 19:12:00,47.3,14.2,30.01,West,270,5.0,7.0,26,0.00,,,0.00,meteohub,2013-02-25 03:12:00,
2013-02-24 19:17:00,47.1,14.0,30.01,West,270,3.0,5.0,26,0.00,,,0.00,meteohub,2013-02-25 03:17:00,
2013-02-24 19:22:00,46.9,13.8,30.01,NW,315,5.0,5.0,26,0.00,,,0.00,meteohub,2013-02-25 03:22:00,
2013-02-24 19:27:00,46.8,13.6,30.01,NW,315,7.0,7.0,26,0.00,,,0.00,meteohub,2013-02-25 03:27:00,
2013-02-24 19:32:00,46.4,12.6,30.01,SW,225,4.0,7.0,25,0.00,,,0.00,meteohub,2013-02-25 03:32:00,
2013-02-24 19:37:00,46.4,12.6,30.02,SW,225,3.0,7.0,25,0.00,,,0.00,meteohub,2013-02-25 03:37:00,
2013-02-24 19:42:00,46.2,9.5,30.02,South,180,5.0,7.0,22,0.00,,,0.00,meteohub,2013-02-25 03:42:00,
2013-02-24 19:47:00,46.0,9.3,30.02,South,180,4.0,6.0,22,0.00,,,0.00,meteohub,2013-02-25 03:47:00,
2013-02-24 19:52:00,46.0,9.3,30.02,West,270,4.0,6.0,22,0.00,,,0.00,meteohub,2013-02-25 03:52:00,
2013-02-24 19:57:00,46.0,9.3,30.02,West,270,4.0,6.0,22,0.00,,,0.00,meteohub,2013-02-25 03:57:00,
2013-02-24 20:02:00,45.9,9.1,30.03,West,270,3.0,6.0,22,0.00,,,0.00,meteohub,2013-02-25 04:02:00,
2013-02-24 20:07:00,45.9,9.1,30.03,SW,225,4.0,6.0,22,0.00,,,0.00,meteohub,2013-02-25 04:07:00,
2013-02-24 20:12:00,45.9,9.1,30.03,NW,315,3.0,5.0,22,0.00,,,0.00,meteohub,2013-02-25 04:12:00,
2013-02-24 20:17:00,45.9,9.1,30.03,East,90,2.0,4.0,22,0.00,,,0.00,meteohub,2013-02-25 04:17:00,
2013-02-24 20:22:00,45.9,9.1,30.03,East,90,2.0,4.0,22,0.00,,,0.00,meteohub,2013-02-25 04:22:00,
2013-02-24 20:27:00,46.0,9.3,30.03,East,90,2.0,4.0,22,0.00,,,0.00,meteohub,2013-02-25 04:27:00,
2013-02-24 20:32:00,46.0,9.3,30.03,West,270,3.0,4.0,22,0.00,,,0.00,meteohub,2013-02-25 04:32:00,
2013-02-24 20:37:00,46.0,8.2,30.03,South,180,2.0,4.0,21,0.00,,,0.00,meteohub,2013-02-25 04:37:00,
2013-02-24 20:42:00,45.9,8.1,30.03,SE,135,1.0,4.0,21,0.00,,,0.00,meteohub,2013-02-25 04:42:00,
2013-02-24 20:47:00,45.9,8.1,30.03,SW,225,2.0,4.0,21,0.00,,,0.00,meteohub,2013-02-25 04:47:00,
2013-02-24 20:52:00,46.0,8.2,30.03,NW,315,2.0,4.0,21,0.00,,,0.00,meteohub,2013-02-25 04:52:00,
2013-02-24 20:57:00,45.9,8.1,30.03,West,270,2.0,4.0,21,0.00,,,0.00,meteohub,2013-02-25 04:57:00,
2013-02-24 21:00:00,45.7,7.9,30.03,West,270,3.0,4.0,21,0.00,,,0.00,meteohub,2013-02-25 05:00:00,
2013-02-24 21:01:00,45.5,7.9,30.03,SSW,203,2.0,3.0,21,0.00,,,0.00,meteohub,2013-02-25 05:01:00,
2013-02-24 21:02:00,45.5,7.9,30.04,SW,225,2.0,3.0,21,0.00,,,0.00,meteohub,2013-02-25 05:02:00,
2013-02-24 21:07:00,45.1,7.5,30.04,ESE,113,2.0,3.0,21,0.00,,,0.00,meteohub,2013-02-25 05:07:00,
2013-02-24 21:12:00,45.0,7.3,30.04,ENE,68,4.0,4.0,21,0.00,,,0.00,meteohub,2013-02-25 05:12:00,
2013-02-24 21:18:00,45.1,7.5,30.04,East,90,1.0,4.0,21,0.00,,,0.00,meteohub,2013-02-25 05:18:00,
2013-02-24 21:23:00,44.8,7.2,30.04,NW,315,2.0,4.0,21,0.00,,,0.00,meteohub,2013-02-25 05:23:00,
2013-02-24 21:28:00,44.2,7.7,30.05,West,270,2.0,5.0,22,0.00,,,0.00,meteohub,2013-02-25 05:28:00,
2013-02-24 21:33:00,43.9,7.5,30.05,West,270,1.0,5.0,22,0.00,,,0.00,meteohub,2013-02-25 05:33:00,
2013-02-24 21:38:00,43.5,7.2,30.05,South,180,0.0,5.0,22,0.00,,,0.00,meteohub,2013-02-25 05:38:00,
2013-02-24 21:43:00,43.9,7.5,30.05,SSE,158,2.0,5.0,22,0.00,,,0.00,meteohub,2013-02-25 05:43:00,
2013-02-24 21:48:00,44.4,7.9,30.05,SE,135,2.0,2.0,22,0.00,,,0.00,meteohub,2013-02-25 05:48:00,
2013-02-24 21:53:00,44.4,7.9,30.05,SW,225,4.0,4.0,22,0.00,,,0.00,meteohub,2013-02-25 05:53:00,
2013-02-24 21:58:00,43.9,7.5,30.05,West,270,3.0,4.0,22,0.00,,,0.00,meteohub,2013-02-25 05:58:00,
2013-02-24 22:04:00,43.7,7.3,30.05,West,270,3.0,4.0,22,0.00,,,0.00,meteohub,2013-02-25 06:04:00,
2013-02-24 22:09:00,43.2,6.8,30.05,South,180,2.0,4.0,22,0.00,,,0.00,meteohub,2013-02-25 06:09:00,
2013-02-24 22:14:00,43.0,6.8,30.06,South,180,3.0,3.0,22,0.00,,,0.00,meteohub,2013-02-25 06:14:00,
2013-02-24 22:19:00,42.8,6.6,30.06,West,270,2.0,4.0,22,0.00,,,0.00,meteohub,2013-02-25 06:19:00,
2013-02-24 22:24:00,42.8,7.5,30.06,West,270,4.0,4.0,23,0.00,,,0.00,meteohub,2013-02-25 06:24:00,
2013-02-24 22:29:00,43.0,7.7,30.06,West,270,4.0,4.0,23,0.00,,,0.00,meteohub,2013-02-25 06:29:00,
2013-02-24 22:34:00,43.2,7.9,30.06,SW,225,4.0,4.0,23,0.00,,,0.00,meteohub,2013-02-25 06:34:00,
2013-02-24 22:39:00,43.2,7.9,30.06,West,270,2.0,4.0,23,0.00,,,0.00,meteohub,2013-02-25 06:39:00,
2013-02-24 22:44:00,43.3,8.1,30.06,West,270,2.0,4.0,23,0.00,,,0.00,meteohub,2013-02-25 06:44:00,
2013-02-24 22:49:00,43.3,7.0,30.06,West,270,2.0,4.0,22,0.00,,,0.00,meteohub,2013-02-25 06:49:00,
2013-02-24 22:54:00,43.3,8.1,30.07,South,180,0.0,4.0,23,0.00,,,0.00,meteohub,2013-02-25 06:54:00,
2013-02-24 22:59:00,43.2,6.8,30.06,SE,135,2.0,4.0,22,0.00,,,0.00,meteohub,2013-02-25 06:59:00,
2013-02-24 23:05:00,42.8,6.6,30.07,NW,315,1.0,2.0,22,0.00,,,0.00,meteohub,2013-02-25 07:05:00,
2013-02-24 23:10:00,42.6,7.3,30.07,NW,315,1.0,2.0,23,0.00,,,0.00,meteohub,2013-02-25 07:10:00,
2013-02-24 23:15:00,42.3,7.2,30.07,South,180,1.0,2.0,23,0.00,,,0.00,meteohub,2013-02-25 07:15:00,
2013-02-24 23:20:00,42.1,7.0,30.07,SW,225,2.0,2.0,23,0.00,,,0.00,meteohub,2013-02-25 07:20:00,
2013-02-24 23:25:00,42.1,7.9,30.07,SE,135,4.0,4.0,24,0.00,,,0.00,meteohub,2013-02-25 07:25:00,
2013-02-24 23:30:00,42.3,8.1,30.07,SE,135,4.0,4.0,24,0.00,,,0.00,meteohub,2013-02-25 07:30:00,
2013-02-24 23:35:00,42.4,8.2,30.07,SE,135,4.0,5.0,24,0.00,,,0.00,meteohub,2013-02-25 07:35:00,
2013-02-24 23:40:00,42.4,8.2,30.07,SE,135,4.0,5.0,24,0.00,,,0.00,meteohub,2013-02-25 07:40:00,
2013-02-24 23:45:00,42.4,8.2,30.07,South,180,3.0,5.0,24,0.00,,,0.00,meteohub,2013-02-25 07:45:00,
2013-02-24 23:50:00,42.6,8.4,30.07,SW,225,0.0,4.0,24,0.00,,,0.00,meteohub,2013-02-25 07:50:00,
2013-02-24 23:55:00,42.3,8.1,30.07,SW,225,2.0,4.0,24,0.00,,,0.00,meteohub,2013-02-25 07:55:00,